Location: Bruderhein
(53.8035°N, 112.9265°W)
Time: 06:49:47
(UTC+00:00)

TIGRISAT - Pass Details

Date: 01 April 2023
Orbit: 599 x 682 km, 97.7° (Epoch: 03 June)

Event Time Altitude Azimuth Distance (km) Brightness Sun altitude
Rises 03:24:37 0° 3° (N) 3,054 ? -12.0°
Reaches altitude 10° 03:27:54 10° 339° (NNW) 2,140 ? -12.4°
Maximum altitude 03:30:13 14° 309° (NW) 1,894 ? -12.7°
Drops below altitude 10° 03:32:31 10° 279° (W) 2,136 ? -13.0°
Sets 03:35:48 0° 254° (WSW) 3,044 ? -13.4°
